Durant, OK

3:58 PM CST on November 14, 2019 (GMT -0600)
Eaker

Weather History for KDUA - October, 2019

Change the Weather History Date:

Monday, October 21, 2019

  Actual Average (WUND) Record (WUND)
Temperature  
Mean Temperature 63 °F -  
Max Temperature 73 °F - - (-1)
Min Temperature 53 °F - - (-1)
Degree Days  
Heating Degree Days 2    
Growing Degree Days 13 (Base 50)    
Moisture  
Dew Point 39 °F    
Average Humidity 47    
Maximum Humidity 94    
Minimum Humidity 18    
Precipitation  
Precipitation 0.00 in - - ()
Sea Level Pressure  
Sea Level Pressure 29.88 in    
Wind  
Wind Speed 9 mph (NW)    
Max Wind Speed 22 mph    
Max Gust Speed 30 mph    
Visibility 10 miles    
Events Rain    
Averages and records for this station are not official NWS values.
T = Trace of Precipitation, MM = Missing Value Source: NWS Daily Summary

Daily Weather History Graph

Daily Weather History Graph

Search for Another Location

Airport or City:

Astronomy

Oct. 21, 2019 Rise Set
Actual Time 7:35 AM CDT 6:44 PM CDT
Civil Twilight 7:09 AM CDT 7:09 PM CDT
Nautical Twilight 6:40 AM CDT 7:39 PM CDT
Astronomical Twilight 6:11 AM CDT 8:08 PM CDT
Moon 12:06 AM CDT (10/21) 2:44 PM CDT (10/21)
Length of Visible Light 11h 59m
Length of Day
11h 09m
Waning Gibbous, 48% of the Moon is Illuminated
Oct 21
Waning Gibbous
Oct 27
New
Nov 4
First Quarter
Nov 12
Full
Nov 19
Last Quarter

Hourly Weather History & Observations

Time (CDT) Temp. Dew Point Humidity Pressure Visibility Wind Dir Wind Speed Gust Speed Precip Events Conditions
12:17 AM 66.2 °F 60.8 °F 83% 29.55 in 2.5 mi South 21.9 mph 29.9 mph N/A Rain Rain
12:36 AM 64.4 °F 62.6 °F 94% 29.56 in 10.0 mi SSW 9.2 mph - N/A Rain Light Rain
12:57 AM 66.2 °F 62.6 °F 88% 29.61 in 5.0 mi NW 9.2 mph 12.7 mph N/A Rain Heavy Rain
1:18 AM 66.2 °F 62.6 °F 88% 29.65 in 7.0 mi NW 12.7 mph 20.7 mph N/A Rain Light Rain
2:18 AM 62.6 °F 51.8 °F 68% 29.70 in 10.0 mi NNW 8.1 mph - N/A   Clear
2:37 AM 62.6 °F 53.6 °F 72% 29.72 in 10.0 mi NW 5.8 mph - N/A   Clear
2:56 AM 60.8 °F 51.8 °F 72% 29.72 in 10.0 mi NW 5.8 mph - N/A   Clear
3:18 AM 60.8 °F 48.2 °F 63% 29.73 in 10.0 mi NNW 10.4 mph - N/A   Clear
3:56 AM 60.8 °F 44.6 °F 55% 29.75 in 10.0 mi Calm Calm - N/A   Clear
4:16 AM 60.8 °F 44.6 °F 55% 29.76 in 10.0 mi NNW 11.5 mph 17.3 mph N/A   Clear
4:36 AM 60.8 °F 41.0 °F 48% 29.77 in 10.0 mi NNW 11.5 mph - N/A   Clear
4:58 AM 59.0 °F 39.2 °F 48% 29.78 in 10.0 mi NNW 10.4 mph - N/A   Clear
5:17 AM 59.0 °F 39.2 °F 48% 29.77 in 10.0 mi NNW 13.8 mph 20.7 mph N/A   Clear
5:37 AM 59.0 °F 37.4 °F 45% 29.79 in 10.0 mi NNW 8.1 mph - N/A   Clear
5:56 AM 57.2 °F 37.4 °F 48% 29.81 in 10.0 mi NNW 5.8 mph - N/A   Clear
6:17 AM 55.4 °F 37.4 °F 51% 29.82 in 10.0 mi NNW 5.8 mph - N/A   Clear
6:37 AM 55.4 °F 37.4 °F 51% 29.82 in 10.0 mi NNW 6.9 mph - N/A   Clear
6:57 AM 53.6 °F 37.4 °F 54% 29.83 in 10.0 mi NNW 6.9 mph - N/A   Clear
7:16 AM 53.6 °F 37.4 °F 54% 29.83 in 10.0 mi NNW 5.8 mph - N/A   Clear
7:36 AM 53.6 °F 35.6 °F 51% 29.84 in 10.0 mi NW 4.6 mph - N/A   Clear
7:57 AM 53.6 °F 35.6 °F 51% 29.86 in 10.0 mi NW 4.6 mph - N/A   Clear
8:16 AM 53.6 °F 37.4 °F 54% 29.87 in 10.0 mi WNW 5.8 mph - N/A   Clear
8:57 AM 57.2 °F 39.2 °F 51% 29.91 in 10.0 mi West 5.8 mph - N/A   Clear
9:37 AM 60.8 °F 35.6 °F 39% 29.92 in 10.0 mi NW 10.4 mph - N/A   Clear
10:17 AM 62.6 °F 33.8 °F 34% 29.92 in 10.0 mi NW 11.5 mph 18.4 mph N/A   Clear
10:57 AM 62.6 °F 33.8 °F 34% 29.93 in 10.0 mi NNW 10.4 mph - N/A   Clear
11:37 AM 64.4 °F 33.8 °F 32% 29.93 in 10.0 mi NW 10.4 mph 17.3 mph N/A   Clear
11:58 AM 66.2 °F 35.6 °F 32% 29.94 in 10.0 mi NNW 9.2 mph - N/A   Clear
12:17 PM 66.2 °F 35.6 °F 32% 29.94 in 10.0 mi WNW 8.1 mph - N/A   Clear
12:36 PM 68.0 °F 33.8 °F 28% 29.94 in 10.0 mi NNW 8.1 mph - N/A   Clear
12:56 PM 69.8 °F 33.8 °F 27% 29.94 in 10.0 mi NW 9.2 mph - N/A   Clear
1:38 PM 69.8 °F 33.8 °F 27% 29.92 in 10.0 mi NW 8.1 mph - N/A   Clear
2:17 PM 71.6 °F 30.2 °F 22% 29.92 in 10.0 mi NW 9.2 mph - N/A   Clear
2:37 PM 71.6 °F 30.2 °F 22% 29.92 in 10.0 mi WNW 10.4 mph - N/A   Clear
2:56 PM 71.6 °F 32.0 °F 23% 29.91 in 10.0 mi NW 8.1 mph - N/A   Clear
3:17 PM 71.6 °F 30.2 °F 22% 29.91 in 10.0 mi West 6.9 mph - N/A   Clear
3:56 PM 73.4 °F 28.4 °F 19% 29.91 in 10.0 mi WNW 5.8 mph - N/A   Clear
4:18 PM 73.4 °F 26.6 °F 18% 29.91 in 10.0 mi NW 8.1 mph - N/A   Clear
4:39 PM 73.4 °F 26.6 °F 18% 29.91 in 10.0 mi WNW 5.8 mph - N/A   Clear
4:58 PM 73.4 °F 28.4 °F 19% 29.91 in 10.0 mi WNW 6.9 mph - N/A   Clear
5:19 PM 73.4 °F 28.4 °F 19% 29.92 in 10.0 mi WNW 4.6 mph - N/A   Clear
5:36 PM 71.6 °F 28.4 °F 20% 29.92 in 10.0 mi WNW 6.9 mph - N/A   Clear
5:56 PM 71.6 °F 30.2 °F 22% 29.93 in 10.0 mi West 4.6 mph - N/A   Clear
6:18 PM 71.6 °F 30.2 °F 22% 29.94 in 10.0 mi Calm Calm - N/A   Clear
6:36 PM 68.0 °F 33.8 °F 28% 29.95 in 10.0 mi Calm Calm - N/A   Clear
6:56 PM 64.4 °F 33.8 °F 32% 29.96 in 10.0 mi West 3.5 mph - N/A   Clear
7:17 PM 62.6 °F 37.4 °F 39% 29.97 in 10.0 mi Calm Calm - N/A   Clear
7:36 PM 60.8 °F 37.4 °F 42% 29.98 in 10.0 mi Calm Calm - N/A   Clear
7:56 PM 59.0 °F 37.4 °F 45% 30.00 in 10.0 mi Calm Calm - N/A   Clear
8:17 PM 60.8 °F 39.2 °F 45% 30.00 in 10.0 mi WNW 3.5 mph - N/A   Clear
8:38 PM 57.2 °F 39.2 °F 51% 30.01 in 10.0 mi Calm Calm - N/A   Clear
8:56 PM 55.4 °F 42.8 °F 63% 30.02 in 10.0 mi Calm Calm - N/A   Clear
9:16 PM 55.4 °F 44.6 °F 67% 30.03 in 10.0 mi SW 3.5 mph - N/A   Clear
9:57 PM 53.6 °F 42.8 °F 67% 30.05 in 10.0 mi West 4.6 mph - N/A   Clear
10:16 PM 53.6 °F 42.8 °F 67% 30.05 in 10.0 mi West 3.5 mph - N/A   Clear
10:36 PM 53.6 °F 42.8 °F 67% 30.06 in 10.0 mi West 3.5 mph - N/A   Clear
10:58 PM 53.6 °F 44.6 °F 72% 30.07 in 10.0 mi West 3.5 mph - N/A   Clear
11:36 PM 53.6 °F 44.6 °F 72% 30.08 in 10.0 mi West 3.5 mph - N/A   Clear
11:58 PM 53.6 °F 44.6 °F 72% 30.07 in 10.0 mi West 4.6 mph - N/A   Clear